GW1943 Weather Reports


Display with metric or nautical units.
time (UTC)temp
F
wind
direction
speed
MPH
gust
MPH
rain 1hr
in
rain 24hr
in
rain mn
in
humidity
%
barometer
mb
20260506091629 55 216 1.0 5.0 0.00 0.00 0.00 89 1018.7
20260506091126 55 218 1.0 2.0 0.00 0.00 0.00 88 1018.7
20260506090624 55 224 1.0 3.0 0.00 0.00 0.00 88 1018.7
20260506090120 55 211 0.0 2.0 0.00 0.00 0.00 88 1018.8
20260506085617 55 215 0.0 1.0 0.00 0.00 0.00 89 1018.6
20260506085114 55 209 0.0 5.0 0.00 0.00 0.00 89 1018.6
20260506084610 55 211 0.0 1.0 0.00 0.00 0.00 90 1018.6
20260506084107 55 216 0.0 0.0 0.00 0.00 0.00 90 1018.5
20260506083604 54 215 0.0 5.0 0.00 0.00 0.00 90 1018.4
20260506083102 54 210 0.0 0.0 0.00 0.00 0.00 90 1018.4
20260506082558 54 213 0.0 1.0 0.00 0.00 0.00 90 1018.4
20260506082054 54 214 0.0 0.0 0.00 0.00 0.00 90 1018.4
20260506081552 54 210 0.0 0.0 0.00 0.00 0.00 91 1018.3
20260506081049 54 211 0.0 1.0 0.00 0.00 0.00 91 1018.3
20260506080547 54 209 0.0 0.0 0.00 0.00 0.00 91 1018.4
20260506073027 54 213 0.0 0.0 0.00 0.00 0.00 91 1018.1
20260506072524 54 213 0.0 0.0 0.00 0.00 0.00 91 1018.2
20260506072022 54 213 0.0 0.0 0.00 0.00 0.00 91 1018.2
20260506071520 54 213 0.0 0.0 0.00 0.00 0.00 92 1018.1
20260506071017 54 213 0.0 0.0 0.00 0.00 0.00 91 1018.0
20260506070514 55 213 0.0 0.0 0.00 0.00 0.00 91 1018.3
20260506062451 56 213 0.0 1.0 0.00 0.00 0.00 90 1017.6
20260506061947 56 211 0.0 0.0 0.00 0.00 0.00 89 1017.6
20260506061444 56 211 0.0 0.0 0.00 0.00 0.00 89 1017.4
20260506060942 56 211 0.0 0.0 0.00 0.00 0.00 88 1017.5
20260506060440 57 211 0.0 0.0 0.00 0.00 0.00 88 1017.3
20260506051412 57 211 0.0 1.0 0.00 0.00 0.00 87 1017.1
20260506050909 57 211 0.0 3.0 0.00 0.00 0.00 87 1017.0
20260506050406 57 216 0.0 0.0 0.00 0.00 0.00 88 1016.9
20260506044857 57 216 0.0 0.0 0.00 0.00 0.00 88 1016.9
20260506044355 57 216 0.0 0.0 0.00 0.00 0.00 87 1016.8
20260506043851 57 216 0.0 0.0 0.00 0.00 0.00 87 1016.9
20260506043348 57 216 0.0 0.0 0.00 0.00 0.00 87 1016.6
20260506042847 57 216 0.0 0.0 0.00 0.00 0.00 87 1016.7
20260506042346 57 217 0.0 0.0 0.00 0.00 0.00 87 1016.9
20260506041844 57 218 0.0 0.0 0.00 0.00 0.00 87 1016.7
20260506041341 57 214 0.0 0.0 0.00 0.00 0.00 87 1016.7
20260506040837 57 213 0.0 1.0 0.00 0.00 0.00 87 1016.9
20260506040335 58 217 0.0 0.0 0.00 0.00 0.00 86 1016.7
20260506035831 58 218 0.0 0.0 0.00 0.00 0.00 86 1016.5
20260506035329 58 220 0.0 0.0 0.00 0.00 0.00 86 1016.5
20260506034826 58 220 0.0 0.0 0.00 0.00 0.00 85 1016.6
20260506034323 59 220 0.0 0.0 0.00 0.00 0.00 84 1016.5
20260506033820 59 220 0.0 0.0 0.00 0.00 0.00 83 1016.5
20260506033317 60 220 0.0 0.0 0.00 0.00 0.00 81 1016.2
20260506032813 60 220 0.0 0.0 0.00 0.00 0.00 80 1015.9
20260506032311 61 220 0.0 0.0 0.00 0.00 0.00 79 1016.2
20260506031807 62 220 0.0 0.0 0.00 0.00 0.00 78 1016.3
20260506031305 63 221 0.0 1.0 0.00 0.00 0.00 76 1016.1
20260506030802 63 221 0.0 3.0 0.00 0.00 0.00 75 1016.4
20260506030300 63 210 0.0 3.0 0.00 0.00 0.00 75 1016.2
20260506025757 63 223 1.0 2.0 0.00 0.00 0.00 75 1016.1
20260506025253 64 225 1.0 2.0 0.00 0.00 0.00 74 1016.1
20260506024750 64 229 1.0 2.0 0.00 0.00 0.00 73 1016.0
20260506024247 65 224 1.0 3.0 0.00 0.00 0.00 71 1016.1
20260506023743 65 225 1.0 2.0 0.00 0.00 0.00 72 1015.9
20260506023240 65 221 1.0 2.0 0.00 0.00 0.00 70 1016.1
20260506022737 66 234 2.0 3.0 0.00 0.00 0.00 70 1016.2
20260506022235 66 215 1.0 5.0 0.00 0.00 0.00 69 1016.0
20260506021732 66 213 1.0 3.0 0.00 0.00 0.00 69 1016.1
20260506021229 66 220 1.0 1.0 0.00 0.00 0.00 71 1016.1
20260506020726 66 232 3.0 3.0 0.00 0.00 0.00 70 1016.1
20260506020224 66 219 1.0 2.0 0.00 0.00 0.00 71 1016.2
20260506015721 66 225 1.0 3.0 0.00 0.00 0.00 70 1016.3
20260506015218 66 215 1.0 2.0 0.00 0.00 0.00 68 1016.1
20260506014710 67 218 0.0 2.0 0.00 0.00 0.00 70 1016.1
20260506014206 67 238 3.0 3.0 0.00 0.00 0.00 67 1016.0
20260506013704 67 221 0.0 2.0 0.00 0.00 0.00 69 1016.1
20260506013201 67 255 2.0 5.0 0.00 0.00 0.00 68 1016.1
20260506012657 67 222 2.0 3.0 0.00 0.00 0.00 68 1016.1
20260506012154 66 223 1.0 3.0 0.00 0.00 0.00 68 1016.1
20260506011651 66 229 1.0 2.0 0.00 0.00 0.00 69 1016.1
20260506011147 66 244 2.0 3.0 0.00 0.00 0.00 69 1016.2
20260506010646 65 230 1.0 3.0 0.00 0.00 0.00 70 1016.0
20260506010143 66 246 1.0 3.0 0.00 0.00 0.00 69 1016.1
20260506005640 66 236 3.0 5.0 0.00 0.00 0.00 69 1016.1
20260506005137 67 258 3.0 5.0 0.00 0.00 0.00 67 1016.2
20260506004632 67 241 1.0 5.0 0.00 0.00 0.00 67 1016.5
20260506004129 67 258 2.0 2.0 0.00 0.00 0.00 67 1016.3
20260506003620 68 229 1.0 3.0 0.00 0.00 0.00 68 1016.2
20260506003116 68 206 2.0 2.0 0.00 0.00 0.00 66 1016.4
20260506002613 68 225 1.0 1.0 0.00 0.00 0.00 68 1016.2
20260506002108 68 237 2.0 2.0 0.00 0.00 0.00 66 1016.2
20260506001605 69 248 3.0 3.0 0.00 0.00 0.00 64 1016.3
20260506001102 68 241 2.0 3.0 0.00 0.00 0.00 67 1016.3
20260506000600 68 232 2.0 3.0 0.00 0.00 0.00 66 1016.4
20260506000057 70 228 0.0 0.0 0.00 0.00 0.00 65 1016.4
20260505235555 69 229 0.0 2.0 0.00 0.00 0.00 64 1016.6
20260505235052 68 227 2.0 3.0 0.00 0.00 0.00 66 1016.5
20260505234548 65 219 1.0 2.0 0.00 0.00 0.00 71 1016.7
20260505234044 65 228 0.0 1.0 0.00 0.00 0.00 73 1016.8
20260505233542 66 220 1.0 2.0 0.00 0.00 0.00 73 1016.7
20260505233039 64 215 0.0 2.0 0.00 0.00 0.00 75 1016.8
20260505232537 64 221 1.0 3.0 0.00 0.00 0.00 72 1016.9
20260505232035 67 217 2.0 3.0 0.00 0.00 0.00 68 1017.1
20260505231531 67 221 1.0 3.0 0.00 0.00 0.00 70 1016.9
20260505231030 64 229 1.0 2.0 0.00 0.00 0.00 72 1016.6
20260505230527 64 225 1.0 2.0 0.00 0.00 0.00 72 1016.9
20260505230023 64 223 2.0 3.0 0.00 0.00 0.00 72 1017.1
20260505225520 64 214 2.0 3.0 0.00 0.00 0.00 73 1016.9
20260505225016 65 238 3.0 5.0 0.00 0.00 0.00 70 1017.0
20260505224514 64 271 1.0 2.0 0.00 0.00 0.00 73 1017.0
20260505224011 63 205 0.0 0.0 0.00 0.00 0.00 78 1017.2
20260505223508 63 233 2.0 2.0 0.00 0.00 0.00 75 1017.3
20260505223004 63 258 2.0 3.0 0.00 0.00 0.00 74 1017.0
20260505222500 62 226 1.0 3.0 0.00 0.00 0.00 75 1017.3
20260505221955 63 235 3.0 6.0 0.00 0.00 0.00 75 1017.1
20260505221453 62 228 2.0 3.0 0.00 0.00 0.00 75 1017.5
20260505220950 62 219 0.0 1.0 0.00 0.00 0.00 78 1017.4
20260505220447 62 228 2.0 2.0 0.00 0.00 0.00 76 1017.5
20260505215945 62 229 1.0 2.0 0.00 0.00 0.00 76 1017.4
20260505215443 61 220 2.0 3.0 0.00 0.00 0.00 77 1017.6
20260505214940 62 226 2.0 2.0 0.00 0.00 0.00 76 1017.6
20260505214438 62 234 2.0 2.0 0.00 0.00 0.00 77 1017.6
20260505213935 62 223 0.0 2.0 0.00 0.00 0.00 77 1017.5
20260505213433 61 221 1.0 2.0 0.00 0.00 0.00 77 1017.4
20260505212929 61 223 1.0 2.0 0.00 0.00 0.00 78 1017.8
20260505212426 60 220 0.0 5.0 0.00 0.00 0.00 80 1017.5
20260505211922 60 224 2.0 3.0 0.00 0.00 0.00 78 1017.3
20260505211420 61 208 1.0 3.0 0.00 0.00 0.00 78 1017.5
20260505210916 60 225 1.0 3.0 0.00 0.00 0.00 79 1017.6
20260505210413 60 225 1.0 5.0 0.00 0.00 0.00 80 1017.5
20260505205910 60 227 1.0 3.0 0.00 0.00 0.00 79 1017.7
20260505205408 60 224 0.0 2.0 0.00 0.00 0.00 80 1017.6
20260505204905 60 214 2.0 3.0 0.00 0.00 0.00 79 1017.7
20260505204403 60 242 3.0 3.0 0.00 0.00 0.00 81 1017.6
20260505203900 60 223 2.0 3.0 0.00 0.00 0.00 80 1017.9
20260505203356 60 240 3.0 3.0 0.00 0.00 0.00 81 1017.7
20260505202852 60 229 3.0 3.0 0.00 0.00 0.00 80 1017.9
20260505202349 59 214 3.0 3.0 0.00 0.00 0.00 81 1017.8
20260505201846 59 237 1.0 3.0 0.00 0.00 0.00 81 1017.9
20260505201343 60 252 2.0 3.0 0.00 0.00 0.00 80 1017.6
20260505200841 59 235 1.0 5.0 0.00 0.00 0.00 81 1017.7
20260505200338 59 215 2.0 5.0 0.00 0.00 0.00 80 1017.5
20260505195833 59 225 2.0 3.0 0.00 0.00 0.00 81 1017.5
20260505195330 59 214 2.0 5.0 0.00 0.00 0.00 81 1017.9
20260505194827 59 218 1.0 3.0 0.00 0.00 0.00 81 1017.9
20260505194325 59 215 1.0 3.0 0.00 0.00 0.00 82 1017.8
20260505193820 59 232 1.0 3.0 0.00 0.00 0.00 82 1017.8
20260505193318 59 224 0.0 5.0 0.00 0.00 0.00 82 1017.8
20260505192816 59 224 2.0 5.0 0.00 0.00 0.00 82 1017.6
20260505192314 59 214 1.0 2.0 0.00 0.00 0.00 83 1017.7
20260505191811 58 232 1.0 3.0 0.00 0.00 0.00 83 1017.6
20260505191309 58 250 2.0 3.0 0.00 0.00 0.00 83 1017.6
20260505190806 58 223 1.0 3.0 0.00 0.00 0.00 83 1017.6
20260505190301 58 221 1.0 3.0 0.00 0.00 0.00 83 1017.6
20260505185757 58 212 1.0 2.0 0.00 0.00 0.00 83 1017.7
20260505185254 58 216 1.0 3.0 0.00 0.00 0.00 84 1017.6
20260505184750 58 233 2.0 6.0 0.00 0.00 0.00 83 1017.4
20260505184247 58 239 1.0 3.0 0.00 0.00 0.00 84 1017.6
20260505183744 58 214 1.0 5.0 0.00 0.00 0.00 83 1017.3
20260505183241 58 238 0.0 1.0 0.00 0.00 0.00 85 1017.5
20260505182738 58 232 1.0 3.0 0.00 0.00 0.00 84 1017.8
20260505182235 58 244 3.0 3.0 0.00 0.00 0.00 83 1017.5
20260505181731 58 213 3.0 3.0 0.00 0.00 0.00 83 1017.4
20260505181229 58 260 1.0 2.0 0.00 0.00 0.00 84 1017.6
20260505180725 57 217 0.0 2.0 0.00 0.00 0.00 85 1017.4
20260505180222 57 223 1.0 2.0 0.00 0.00 0.00 84 1017.7
20260505175718 57 223 1.0 2.0 0.00 0.00 0.00 84 1017.6
20260505175214 57 251 0.0 2.0 0.00 0.00 0.00 85 1017.5
20260505174711 57 230 2.0 2.0 0.00 0.00 0.00 85 1017.5
20260505174208 57 213 0.0 2.0 0.00 0.00 0.00 86 1017.5
20260505173704 57 221 2.0 3.0 0.00 0.00 0.00 85 1017.4
20260505173201 57 220 1.0 3.0 0.00 0.00 0.00 85 1017.4
20260505172658 57 224 2.0 3.0 0.00 0.00 0.00 86 1017.2
20260505172155 57 221 0.0 3.0 0.00 0.00 0.00 85 1017.6
20260505171654 57 219 1.0 1.0 0.00 0.00 0.00 86 1017.4
20260505171152 57 217 0.0 3.0 0.00 0.00 0.00 86 1017.3
20260505170649 57 220 0.0 3.0 0.00 0.00 0.00 86 1017.4
20260505170146 57 210 2.0 3.0 0.00 0.00 0.00 86 1017.5
20260505165646 57 213 1.0 1.0 0.00 0.00 0.00 87 1017.4
20260505165142 57 217 1.0 3.0 0.00 0.00 0.00 86 1017.1
20260505164638 57 218 0.0 2.0 0.00 0.00 0.00 86 1017.4
20260505164136 57 216 1.0 1.0 0.00 0.00 0.00 86 1017.3
20260505163634 56 212 2.0 3.0 0.00 0.00 0.00 85 1017.1
20260505163131 57 235 2.0 3.0 0.00 0.00 0.00 86 1017.1
20260505162628 57 214 0.0 0.0 0.00 0.00 0.00 86 1017.2
20260505162127 56 215 0.0 2.0 0.00 0.00 0.00 86 1017.2
20260505161623 56 214 0.0 0.0 0.00 0.00 0.00 86 1017.3
20260505161120 56 217 0.0 0.0 0.00 0.00 0.00 86 1017.0
20260505160618 56 216 0.0 1.0 0.00 0.00 0.00 86 1017.2
20260505160115 56 215 0.0 1.0 0.00 0.00 0.00 86 1017.0
20260505153055 56 217 1.0 2.0 0.00 0.00 0.00 88 1017.2
20260505152551 56 217 0.0 2.0 0.00 0.00 0.00 87 1016.9
20260505152047 56 216 0.0 0.0 0.00 0.00 0.00 88 1016.9
20260505151542 55 216 1.0 2.0 0.00 0.00 0.00 87 1017.0
20260505151040 55 218 1.0 2.0 0.00 0.00 0.00 88 1017.0
20260505150536 55 211 0.0 5.0 0.00 0.00 0.00 87 1017.0
20260505140501 55 211 1.0 1.0 0.00 0.00 0.00 88 1016.4
20260505124915 55 214 0.0 2.0 0.00 0.00 0.00 88 1015.7
20260505124412 55 218 0.0 2.0 0.00 0.00 0.00 88 1015.7
20260505123908 55 213 0.0 1.0 0.00 0.00 0.00 88 1015.4
20260505123404 55 212 3.0 7.0 0.00 0.00 0.00 88 1015.6
20260505122900 55 227 1.0 3.0 0.00 0.00 0.00 88 1015.7
20260505122358 55 211 1.0 2.0 0.00 0.00 0.00 88 1015.5
20260505121854 55 213 1.0 6.0 0.00 0.00 0.00 89 1015.4
20260505121351 55 208 0.0 2.0 0.00 0.00 0.00 89 1015.6
20260505120847 55 211 0.0 3.0 0.00 0.00 0.00 89 1015.6
20260505120343 55 204 3.0 3.0 0.00 0.00 0.00 89 1015.6
20260505115842 55 213 0.0 3.0 0.00 0.00 0.00 89 1015.2
20260505115340 55 216 0.0 0.0 0.00 0.00 0.00 89 1015.4
20260505114838 55 215 0.0 1.0 0.00 0.00 0.00 89 1015.4
20260505114334 55 215 0.0 1.0 0.00 0.00 0.00 89 1015.4
20260505113830 55 214 1.0 2.0 0.00 0.00 0.00 89 1015.5
20260505113327 55 214 0.0 0.0 0.00 0.00 0.00 89 1015.4
20260505112823 55 225 0.0 2.0 0.00 0.00 0.00 89 1015.1
20260505112320 55 213 1.0 3.0 0.00 0.00 0.00 89 1015.4
20260505111816 55 212 0.0 3.0 0.00 0.00 0.00 89 1015.0
20260505111311 55 215 2.0 3.0 0.00 0.00 0.00 89 1015.2
20260505110807 55 213 0.0 3.0 0.00 0.00 0.00 89 1015.3
20260505110305 55 214 0.0 2.0 0.00 0.00 0.00 89 1015.1
20260505101739 55 206 3.0 5.0 0.00 0.00 0.00 89 1014.9
20260505101235 55 210 0.0 2.0 0.00 0.00 0.00 90 1015.1
20260505100732 55 237 1.0 2.0 0.00 0.00 0.00 90 1014.8
20260505100229 55 212 2.0 5.0 0.00 0.00 0.00 90 1014.8
20260505095724 55 214 0.0 3.0 0.00 0.00 0.00 90 1014.8
20260505095222 55 205 1.0 2.0 0.00 0.00 0.00 90 1014.9
20260505094718 55 215 1.0 3.0 0.00 0.00 0.00 90 1014.7
20260505094214 55 212 0.0 3.0 0.00 0.00 0.00 90 1014.9
20260505093711 54 227 0.0 2.0 0.00 0.00 0.00 91 1014.8
20260505093208 54 209 2.0 5.0 0.00 0.00 0.00 91 1014.6
20260505092705 54 206 2.0 3.0 0.00 0.00 0.00 92 1014.7
20260505092204 54 211 0.0 1.0 0.00 0.00 0.00 91 1014.4